TimeMDT,TemperatureF,Dew PointF,Humidity,Sea Level PressureIn,VisibilityMPH,Wind Direction,Wind SpeedMPH,Gust SpeedMPH,PrecipitationIn,Events,Conditions,WindDirDegrees,DateUTC
2:45 AM,74,69,78,29.87,2,South,4.5,,,,Scattered Clouds,190,2013-07-20 08:45:00
5:49 AM,71.6,66.2,83,29.92,10.0,SW,4.6,-,N/A,,Partly Cloudy,230,2013-07-20 11:49:00
5:50 AM,73,68,80,29.86,2,South,4.5,,,,Scattered Clouds,180,2013-07-20 11:50:00
6:44 AM,71.6,64.4,78,29.88,8.0,South,4.6,-,N/A,,Scattered Clouds,190,2013-07-20 12:44:00
7:42 AM,71.6,66.2,83,29.90,8.0,SSW,4.6,-,N/A,,Partly Cloudy,200,2013-07-20 13:42:00
8:43 AM,75.2,66.2,73,29.95,10.0,SSW,6.9,-,N/A,,Clear,210,2013-07-20 14:43:00
8:50 AM,77,68,66,29.89,12,South,6.7,,,,,180,2013-07-20 14:50:00
9:45 AM,78.8,62.6,57,29.89,10.0,South,9.2,-,N/A,,Partly Cloudy,190,2013-07-20 15:45:00
10:40 AM,82.4,55.4,39,29.88,10.0,SW,6.9,-,N/A,,Partly Cloudy,230,2013-07-20 16:40:00
11:41 AM,87.8,46.4,24,29.92,12.0,SW,6.9,-,N/A,,Clear,220,2013-07-20 17:41:00
11:50 AM,93,56,19,29.86,19,SSW,4.5,,,,,200,2013-07-20 17:50:00
12:41 PM,91.4,41.0,17,29.85,12.0,SW,13.8,-,N/A,,Clear,220,2013-07-20 18:41:00
1:40 PM,95.0,41.0,15,29.82,12.0,West,3.5,-,N/A,,Clear,260,2013-07-20 19:40:00
2:50 PM,98,57,17,29.81,19,NNW,8.9,,,,,340,2013-07-20 20:50:00
2:51 PM,96.8,42.8,16,29.91,10.0,SW,13.8,-,N/A,,Clear,230,2013-07-20 20:51:00
3:46 PM,95.0,39.2,14,29.79,10.0,SSW,11.5,-,N/A,,Clear,200,2013-07-20 21:46:00
4:50 PM,93.2,37.4,14,29.78,10.0,South,11.5,-,N/A,,Clear,190,2013-07-20 22:50:00
5:43 PM,89.6,46.4,22,29.91,10.0,SSW,11.5,-,N/A,,Clear,210,2013-07-20 23:43:00
5:45 PM,94,53,16,29.77,19,SSW,8.9,,,,,200,2013-07-20 23:45:00
6:47 PM,86.0,51.8,31,29.79,10.0,SW,13.8,-,N/A,,Clear,220,2013-07-21 00:47:00
7:44 PM,82.4,57.2,42,29.81,10.0,SSW,13.8,-,N/A,,Clear,200,2013-07-21 01:44:00
8:44 PM,81,65,50,29.81,2,SSW,8.9,,,,,210,2013-07-21 02:44:00
9:45 PM,75.2,64.4,69,29.86,10.0,SW,9.2,-,N/A,,Clear,220,2013-07-21 03:45:00
10:40 PM,75.2,64.4,69,29.87,10.0,SSW,11.5,-,N/A,,Clear,200,2013-07-21 04:40:00
11:50 PM,76,66,64,29.88,2,South,6.7,,,,,180,2013-07-21 05:50:00